Find Starlink 31152

NORAD ID: 58734 Int'l Des: 2024-005 Owner: SPXS Country: US Constellation: starlink operational
LEOCIRCULAR

实时位置

正在加载3D地球...

关于 Starlink 31152

正在加载描述...

即将过境

Passes for default location (London). Set your location on the main map for personalized predictions.

高度历史

Loading altitude history...

两行轨道根数

1 58734U 24005G 26122.47979345 .00000686 00000-0 34477-4 0 9998
2 58734 43.0051 275.6757 0001434 234.5068 125.5650 15.27569772128670
Epoch: May 2, 2026 • Age: 7 hours

当前状态

高度 482.2 km
速度 7.63 km/s
星下点 18.28°N, 64.12°W
发射日期 Jan 7, 2024
运行时间 2.3 years
类型 internet

技术详情

分类 Payload
质量 730.00 kg
干质量 700.00 kg
总质量 730.00 kg
长度 0.30 m
直径 4.10 m
跨度 29.00 m
形状 Box + pan
制造商 SPXS
平台类型 Starlink V2M
阶段状态 In Orbit
所有者/国家 SPXS/US

Most Searched